Weather History for KJAN - June, 2013

Change the Weather History Date:

Sunday, June 30, 2013

  Actual Average Record
Temperature  
Mean Temperature 78 °F 81 °F  
Max Temperature 89 °F 91 °F 103 °F (1902)
Min Temperature 66 °F 71 °F 54 °F (1923)
Degree Days  
Heating Degree Days 0 0  
Month to date heating degree days 0 0  
Since 1 June heating degree days 0 0  
Since 1 July heating degree days 2309 2391  
Cooling Degree Days 13 16  
Month to date cooling degree days 447 422  
Year to date cooling degree days 765 780  
Since 1 June cooling degree days 447 422  
Growing Degree Days 28 (Base 50)    
Moisture  
Dew Point 64 °F    
Average Humidity 66    
Maximum Humidity 93    
Minimum Humidity 38    
Precipitation  
Precipitation 0.00 in 0.15 in 2.02 in (2010)
Month to date precipitation 5.00 4.12  
Year to date precipitation 38.06 28.23  
Sea Level Pressure  
Sea Level Pressure 29.76 in    
Wind  
Wind Speed 4 mph (NNW)    
Max Wind Speed 17 mph    
Max Gust Speed 23 mph    
Visibility 10 miles    
Events      
T = Trace of Precipitation, MM = Missing Value Source: NWS Daily Summary

Daily Weather History Graph

Daily Weather History Graph

Search for Another Location

Airport or City:

Trip Planner

Search our weather history database for the weather conditions in past years. The results will help you decide how hot, cold, wet, or windy it might be!

Date:

Astronomy

Jun. 30, 2013 Rise Set
Actual Time 5:56 AM CDT 8:11 PM CDT
Civil Twilight 5:28 AM CDT 8:39 PM CDT
Nautical Twilight 4:53 AM CDT 9:14 PM CDT
Astronomical Twilight 4:16 AM CDT 9:51 PM CDT
Moon 12:38 AM CDT 1:40 PM CDT
Length of Visible Light 15h 11m
Length of Day
14h 14m
Last Quarter, 45% of the Moon is Illuminated
Jun 30
Last Quarter
Jul 8
New
Jul 15
First Quarter
Jul 22
Full
Jul 29
Last Quarter

Hourly Weather History & Observations

Time (CDT) Temp. Heat Index Dew Point Humidity Pressure Visibility Wind Dir Wind Speed Gust Speed Precip Events Conditions
12:54 AM 68.0 °F - 64.9 °F 90% 29.75 in 10.0 mi Calm Calm - N/A   Clear
1:54 AM 68.0 °F - 64.9 °F 90% 29.74 in 10.0 mi Calm Calm - N/A   Clear
2:54 AM 66.9 °F - 64.9 °F 93% 29.73 in 10.0 mi Calm Calm - N/A   Clear
3:54 AM 66.9 °F - 64.9 °F 93% 29.73 in 10.0 mi Calm Calm - N/A   Clear
4:54 AM 66.0 °F - 64.0 °F 93% 29.73 in 10.0 mi Calm Calm - N/A   Partly Cloudy
5:54 AM 66.0 °F - 64.0 °F 93% 29.73 in 10.0 mi Calm Calm - 0.01 in   Partly Cloudy
6:54 AM 70.0 °F - 66.9 °F 90% 29.74 in 10.0 mi Calm Calm - N/A   Scattered Clouds
7:54 AM 73.0 °F - 66.9 °F 81% 29.75 in 10.0 mi Calm Calm - N/A   Scattered Clouds
8:54 AM 78.1 °F - 69.1 °F 74% 29.76 in 10.0 mi Calm Calm - N/A   Mostly Cloudy
9:54 AM 82.0 °F 84.5 °F 66.9 °F 60% 29.75 in 10.0 mi ESE 4.6 mph - N/A   Scattered Clouds
10:54 AM 87.1 °F 87.5 °F 62.1 °F 43% 29.76 in 10.0 mi NNE 3.5 mph - N/A   Clear
11:54 AM 84.0 °F 85.8 °F 64.9 °F 53% 29.76 in 10.0 mi North 5.8 mph - N/A   Mostly Cloudy
12:54 PM 86.0 °F 87.6 °F 64.9 °F 49% 29.75 in 10.0 mi WNW 10.4 mph - N/A   Scattered Clouds
1:54 PM 89.1 °F 89.0 °F 61.0 °F 39% 29.74 in 10.0 mi NNW 6.9 mph 16.1 mph N/A   Partly Cloudy
2:54 PM 88.0 °F 88.7 °F 63.0 °F 43% 29.75 in 10.0 mi NNW 12.7 mph 19.6 mph N/A   Scattered Clouds
3:54 PM 89.1 °F 89.3 °F 62.1 °F 40% 29.75 in 10.0 mi NW 10.4 mph 17.3 mph N/A   Partly Cloudy
4:54 PM 87.1 °F 87.0 °F 61.0 °F 41% 29.75 in 10.0 mi NW 8.1 mph - N/A   Partly Cloudy
5:54 PM 86.0 °F 86.8 °F 63.0 °F 46% 29.76 in 10.0 mi NW 6.9 mph - N/A   Scattered Clouds
6:54 PM 82.0 °F 83.0 °F 62.1 °F 51% 29.77 in 10.0 mi NW 8.1 mph - N/A   Partly Cloudy
7:54 PM 79.0 °F - 62.1 °F 56% 29.78 in 10.0 mi North 6.9 mph - N/A   Clear
8:54 PM 75.9 °F - 63.0 °F 64% 29.79 in 10.0 mi North 5.8 mph - N/A   Clear
9:54 PM 73.0 °F - 63.0 °F 71% 29.81 in 10.0 mi NNW 4.6 mph - N/A   Clear
10:54 PM 73.0 °F - 63.0 °F 71% 29.82 in 10.0 mi NNW 4.6 mph - N/A   Clear
11:54 PM 72.0 °F - 63.0 °F 73% 29.82 in 10.0 mi Calm Calm - N/A   Clear